This is the latest recevied weather packets stored in our database for station/object WV8BRW. If no packets are shown the sender has not sent any weather packets the latest 10 day(s).
| Time | Temp. | Humidity | Pressure | Rain* | Wind** | Luminosity | Snow |
|---|---|---|---|---|---|---|---|
| 1778009057 | 23.89° C | 58% | 1008.7 hPa | 0 mm | - | 202 W/m² | - |
| 1778008754 | 23.89° C | 56% | 1008.9 hPa | 0 mm | - | 219 W/m² | - |
| 1778008453 | 23.89° C | 51% | 1009.2 hPa | 0 mm | - | 266 W/m² | - |
| 1778008149 | 23.89° C | 53% | 1009.2 hPa | 0 mm | - | 243 W/m² | - |
| 1778007844 | 23.89° C | 54% | 1008.9 hPa | 0 mm | - | 329 W/m² | - |
| 1778007539 | 23.89° C | 54% | 1009.2 hPa | 0 mm | - | 341 W/m² | - |
| 1778007236 | 23.89° C | 61% | 1008.8 hPa | 0 mm | - | 312 W/m² | - |
| 1778006933 | 23.89° C | 53% | 1009.1 hPa | 0 mm | - | 293 W/m² | - |
| 1778006630 | 23.89° C | 52% | 1009.3 hPa | 0 mm | - | 298 W/m² | - |
| 1778006327 | 23.89° C | 56% | 1009.4 hPa | 0 mm | - | 272 W/m² | - |
| 1778006024 | 23.89° C | 55% | 1009.4 hPa | 0 mm | - | 413 W/m² | - |
| 1778005720 | 23.89° C | 54% | 1009.4 hPa | 0 mm | - | 243 W/m² | - |
| 1778005417 | 23.89° C | 53% | 1009.5 hPa | 0 mm | - | 360 W/m² | - |
| 1778005114 | 23.89° C | 57% | 1009.6 hPa | 0 mm | - | 344 W/m² | - |
| 1778004811 | 23.89° C | 56% | 1009.8 hPa | 0 mm | - | 395 W/m² | - |
| 1778004508 | 23.89° C | 56% | 1009.9 hPa | 0 mm | - | 284 W/m² | - |
| 1778004204 | 23.89° C | 62% | 1009.5 hPa | 0 mm | - | 370 W/m² | - |
| 1778003901 | 23.33° C | 56% | 1009.6 hPa | 0 mm | - | 305 W/m² | - |
| 1778003597 | 23.33° C | 58% | 1009.6 hPa | 0 mm | - | 275 W/m² | - |
| 1778003294 | 22.78° C | 56% | 1009.6 hPa | 0 mm | - | 245 W/m² | - |
| 1778002991 | 22.78° C | 54% | 1009.8 hPa | 0 mm | - | 260 W/m² | - |
| 1778002687 | 22.78° C | 58% | 1009.9 hPa | 0 mm | - | 249 W/m² | - |
| 1778002384 | 22.78° C | 55% | 1009.8 hPa | 0 mm | - | 231 W/m² | - |
| 1778002081 | 22.78° C | 53% | 1009.8 hPa | 0 mm | - | 227 W/m² | - |
| 1778001778 | 23.33° C | 54% | 1009.9 hPa | 0 mm | - | 229 W/m² | - |
* Rain latest hour (hover to see other rain measurements)
** Current wind speed in m/s (hover to see current wind gust speed)